GW2723 Weather Reports


time (UTC)temp
F
wind
direction
speed
knots
gust
knots
rain 1hr
in
rain 24hr
in
rain mn
in
humidity
%
barometer
mb
20260510142524 72 211 0.9 3.5 0.00 0.00 0.00 88 1016.7
20260510142025 73 204 1.7 4.3 0.00 0.00 0.00 88 1016.7
20260510141537 73 251 1.7 4.3 0.00 0.00 0.00 88 1016.8
20260510141025 73 233 0.9 2.6 0.00 0.00 0.00 89 1016.8
20260510140525 72 314 0.0 2.6 0.00 0.00 0.00 89 1016.8
20260510140038 72 250 0.0 2.6 0.00 0.00 0.00 90 1016.7
20260510135524 71 221 0.9 2.6 0.00 0.00 0.00 89 1016.7
20260510135025 71 0 0.0 1.7 0.00 0.00 0.00 90 1016.6
20260510134542 71 0 0.9 1.7 0.00 0.00 0.00 91 1016.7
20260510134025 71 227 0.0 0.9 0.00 0.00 0.00 91 1016.6
20260510133526 71 0 0.0 0.9 0.00 0.00 0.00 91 1016.6
20260510133035 71 250 0.0 0.9 0.00 0.00 0.00 91 1016.7
20260510132526 70 0 0.0 0.9 0.00 0.00 0.00 91 1016.7
20260510132025 70 271 0.0 0.9 0.00 0.00 0.00 91 1016.7
20260510131539 70 0 0.0 0.0 0.00 0.00 0.00 92 1016.7
20260510131029 70 0 0.0 0.0 0.00 0.00 0.00 92 1016.7
20260510130525 70 0 0.0 0.9 0.00 0.00 0.00 92 1016.7
20260510130040 69 0 0.0 0.9 0.00 0.00 0.00 93 1016.7
20260510125524 69 0 0.0 0.9 0.00 0.00 0.00 93 1016.6
20260510125025 69 0 0.0 1.7 0.00 0.00 0.00 93 1016.6
20260510124537 69 0 0.0 1.7 0.00 0.00 0.00 93 1016.6
20260510124025 69 224 0.9 1.7 0.00 0.00 0.00 93 1016.6
20260510123525 69 250 0.0 0.9 0.00 0.00 0.00 93 1016.3
20260510123035 69 0 0.0 0.9 0.00 0.00 0.00 94 1016.3
20260510122524 69 248 0.9 0.9 0.00 0.00 0.00 93 1016.3
20260510122025 68 239 0.0 0.9 0.00 0.00 0.00 94 1016.3
20260510121535 68 230 0.0 0.9 0.00 0.00 0.00 94 1016.1
20260510121024 68 0 0.0 0.9 0.00 0.00 0.00 94 1016.1
20260510120524 68 0 0.0 1.7 0.00 0.00 0.00 94 1016.0
20260510120037 68 274 0.0 1.7 0.00 0.00 0.00 94 1016.0
20260510115524 68 0 0.9 1.7 0.00 0.00 0.00 94 1015.9
20260510115025 68 266 0.0 1.7 0.00 0.00 0.00 94 1015.9
20260510114541 68 248 0.0 0.9 0.00 0.00 0.00 94 1016.0
20260510114024 68 0 0.0 1.7 0.00 0.00 0.00 94 1016.0
20260510113524 68 0 0.0 1.7 0.00 0.00 0.00 94 1015.9
20260510113039 68 0 0.0 1.7 0.00 0.00 0.00 94 1015.8
20260510112525 68 259 0.0 1.7 0.00 0.00 0.00 94 1015.8
20260510112025 68 265 0.0 1.7 0.00 0.00 0.00 94 1015.8
20260510111534 68 268 0.9 1.7 0.00 0.00 0.00 94 1015.7
20260510111024 68 238 0.0 2.6 0.00 0.00 0.00 94 1015.6
20260510110524 68 239 0.9 2.6 0.00 0.00 0.00 94 1015.5
20260510110036 68 238 1.7 2.6 0.00 0.00 0.00 94 1015.5
20260510105524 68 222 0.0 1.7 0.00 0.00 0.00 94 1015.3
20260510105025 68 240 0.9 1.7 0.00 0.00 0.00 94 1015.3
20260510104539 68 271 0.9 2.6 0.00 0.00 0.00 94 1015.3
20260510104027 68 264 0.9 2.6 0.00 0.00 0.00 94 1015.4
20260510103524 68 270 0.9 1.7 0.00 0.00 0.00 95 1015.3
20260510103043 68 271 0.0 1.7 0.00 0.00 0.00 95 1015.4
20260510102525 68 259 0.0 0.9 0.00 0.00 0.00 95 1015.2
20260510102026 68 238 0.0 0.9 0.00 0.00 0.00 94 1015.0
20260510101539 68 0 0.0 0.9 0.00 0.00 0.00 94 1014.8
20260510101024 68 0 0.0 0.9 0.00 0.00 0.00 94 1014.6
20260510100525 68 0 0.0 0.9 0.00 0.00 0.00 94 1014.3
20260510100048 68 0 0.0 2.6 0.00 0.00 0.00 94 1014.2
20260510095525 68 244 0.9 2.6 0.00 0.00 0.00 95 1014.2
20260510095028 68 275 0.9 1.7 0.00 0.00 0.00 94 1014.1
20260510094538 68 0 0.0 1.7 0.00 0.00 0.00 95 1013.8
20260510094024 68 229 0.9 1.7 0.00 0.00 0.00 95 1013.7
20260510093524 68 198 0.0 1.7 0.00 0.00 0.00 95 1013.6
20260510093045 68 224 0.0 1.7 0.00 0.00 0.00 95 1013.6
20260510092525 68 193 0.0 2.6 0.00 0.00 0.00 95 1013.5
20260510092024 68 210 0.9 2.6 0.00 0.00 0.00 95 1013.5
20260510091543 68 219 0.9 2.6 0.00 0.00 0.00 95 1013.6
20260510091024 68 227 0.9 2.6 0.00 0.00 0.00 95 1013.7
20260510090524 68 231 0.0 3.5 0.00 0.00 0.00 95 1013.6
20260510090037 68 226 1.7 3.5 0.00 0.00 0.00 95 1013.7
20260510085527 68 232 1.7 3.5 0.00 0.00 0.00 95 1013.7
20260510085026 68 238 0.9 3.5 0.00 0.00 0.00 95 1013.6
20260510084537 68 241 1.7 4.3 0.00 0.00 0.00 95 1013.6
20260510084026 68 236 2.6 4.3 0.00 0.00 0.00 95 1013.6
20260510083528 68 220 1.7 4.3 0.00 0.00 0.00 95 1013.6
20260510083043 68 215 1.7 4.3 0.00 0.00 0.00 95 1013.5
20260510082526 68 196 1.7 4.3 0.00 0.00 0.00 95 1013.4
20260510082026 68 214 1.7 4.3 0.00 0.00 0.00 95 1013.5
20260510081539 68 208 2.6 3.5 0.00 0.00 0.00 96 1013.4
20260510081027 67 196 1.7 3.5 0.00 0.00 0.00 96 1013.4
20260510080526 67 202 0.9 3.5 0.00 0.00 0.00 96 1013.3
20260510080037 67 181 0.9 2.6 0.00 0.00 0.00 96 1013.3
20260510075526 66 171 0.9 2.6 0.00 0.17 0.00 96 1013.2
20260510075027 66 150 0.9 2.6 0.00 0.17 0.00 96 1013.2
20260510074535 65 0 0.0 0.0 0.00 0.17 0.00 94 1013.1
20260510074026 65 0 0.0 0.0 0.00 0.17 0.00 94 1013.1
20260510073526 65 0 0.0 0.0 0.00 0.17 0.00 94 1013.2
20260510073039 65 0 0.0 0.0 0.00 0.17 0.00 94 1013.1
20260510072525 65 0 0.0 0.0 0.00 0.17 0.00 94 1013.0
20260510072025 65 0 0.0 0.0 0.00 0.17 0.00 93 1013.0
20260510071551 65 0 0.0 0.0 0.00 0.17 0.00 93 1013.0
20260510071026 66 0 0.0 0.0 0.00 0.17 0.00 94 1012.9
20260510070527 66 0 0.0 0.9 0.00 0.17 0.00 94 1012.8
20260510070040 66 0 0.0 0.9 0.00 0.17 0.00 94 1012.8
20260510065527 66 0 0.0 0.9 0.00 0.18 0.00 94 1012.8
20260510065026 66 0 0.0 0.9 0.00 0.18 0.00 94 1012.8
20260510064535 66 0 0.0 0.9 0.00 0.18 0.00 95 1012.8
20260510064026 66 0 0.0 0.9 0.00 0.18 0.00 94 1012.8
20260510063530 66 0 0.0 0.9 0.00 0.18 0.00 94 1012.9
20260510063037 65 0 0.0 0.0 0.00 0.18 0.00 95 1012.9
20260510062522 65 0 0.0 0.9 0.00 0.18 0.00 94 1012.9
20260510062022 65 0 0.0 0.9 0.00 0.18 0.00 94 1012.9
20260510061546 65 0 0.0 0.9 0.00 0.18 0.00 94 1013.0
20260510061022 65 0 0.0 0.0 0.00 0.18 0.00 93 1013.1
20260510060522 65 0 0.0 0.0 0.00 0.18 0.00 94 1013.1
20260510060036 65 0 0.0 0.0 0.00 0.18 0.00 94 1013.1
20260510055524 65 0 0.0 0.0 0.00 0.19 0.00 93 1013.1
20260510055025 65 0 0.0 0.0 0.00 0.19 0.00 94 1013.1
20260510054542 65 0 0.0 0.0 0.00 0.19 0.00 94 1013.1
20260510054024 65 0 0.0 0.9 0.00 0.19 0.00 94 1013.1
20260510053523 65 0 0.0 0.9 0.00 0.19 0.00 94 1013.1
20260510053038 65 0 0.0 0.9 0.00 0.19 0.00 94 1013.1
20260510052530 65 0 0.0 0.0 0.00 0.19 0.00 94 1013.1
20260510052024 65 0 0.0 0.0 0.00 0.19 0.00 94 1013.1
20260510051535 65 0 0.0 0.0 0.00 0.19 0.00 94 1013.1
20260510051025 64 0 0.0 0.0 0.00 0.19 0.00 94 1013.1
20260510050526 64 0 0.0 0.0 0.00 0.19 0.00 93 1013.1
20260510050038 64 0 0.0 0.0 0.00 0.19 0.00 93 1013.0
20260510045527 65 0 0.0 0.0 0.00 0.32 0.19 94 1013.0
20260510045024 64 0 0.0 0.0 0.00 0.32 0.19 93 1013.0
20260510044537 64 0 0.0 0.0 0.00 0.32 0.19 93 1013.1
20260510044027 65 0 0.0 0.0 0.00 0.32 0.19 93 1013.0
20260510043526 65 0 0.0 0.0 0.00 0.32 0.19 93 1013.0
20260510043038 65 0 0.0 0.0 0.00 0.32 0.19 93 1013.1
20260510042525 65 0 0.0 0.0 0.00 0.32 0.19 93 1013.0
20260510042027 65 0 0.0 0.0 0.00 0.32 0.19 93 1013.1
20260510041540 65 0 0.0 0.0 0.00 0.32 0.19 92 1013.2
20260510041025 65 0 0.0 0.0 0.00 0.32 0.19 92 1013.3
20260510040525 66 0 0.0 0.0 0.00 0.32 0.19 92 1013.3
20260510040039 66 0 0.0 0.9 0.00 0.32 0.19 92 1013.3
20260510035524 66 0 0.0 0.9 0.00 0.32 0.19 92 1013.4
20260510035027 66 0 0.0 0.9 0.00 0.32 0.19 92 1013.2
20260510034540 66 116 0.0 0.9 0.00 0.32 0.19 92 1013.2
20260510034025 66 0 0.0 0.9 0.00 0.32 0.19 92 1013.2
20260510033524 66 0 0.0 0.9 0.00 0.32 0.19 92 1013.3
20260510033046 66 0 0.0 0.9 0.00 0.32 0.19 92 1013.4
20260510032524 66 0 0.0 0.9 0.00 0.32 0.19 92 1013.3
20260510032024 66 0 0.0 0.9 0.00 0.32 0.19 92 1013.3
20260510031600 67 0 0.0 0.0 0.00 0.32 0.19 92 1013.3
20260510031024 67 0 0.0 0.0 0.00 0.32 0.19 92 1013.3
20260510030524 66 0 0.0 0.9 0.00 0.32 0.19 92 1013.3
20260510030040 67 0 0.0 0.9 0.00 0.32 0.19 92 1013.3
20260510025524 66 0 0.0 0.9 0.00 0.32 0.19 92 1013.3
20260510025026 66 0 0.0 0.0 0.00 0.32 0.19 92 1013.3
20260510024544 66 0 0.0 0.0 0.00 0.32 0.19 93 1013.3
20260510024025 66 0 0.0 0.0 0.00 0.32 0.19 92 1013.3
20260510023525 66 0 0.0 0.0 0.00 0.32 0.19 92 1013.2
20260510023035 66 0 0.0 0.0 0.00 0.32 0.19 92 1013.2
20260510022527 66 0 0.0 0.0 0.00 0.32 0.19 92 1013.1
20260510022027 67 0 0.0 0.0 0.00 0.32 0.19 92 1013.0
20260510021537 67 0 0.0 0.0 0.00 0.32 0.19 92 1013.1
20260510021026 67 0 0.0 0.0 0.00 0.32 0.19 92 1012.9
20260510020526 67 0 0.0 0.0 0.00 0.32 0.19 91 1012.8
20260510020037 68 0 0.0 0.0 0.00 0.32 0.19 91 1012.8
20260510015526 68 0 0.0 0.0 0.00 0.32 0.19 91 1012.9
20260510015026 68 0 0.0 0.0 0.00 0.32 0.19 91 1012.8
20260510014542 68 0 0.0 0.0 0.00 0.32 0.19 90 1012.8
20260510014023 69 0 0.0 0.0 0.00 0.32 0.19 88 1012.7
20260510013526 70 0 0.0 0.0 0.00 0.32 0.19 87 1012.6
20260510013040 70 0 0.0 0.0 0.00 0.32 0.19 87 1012.4
20260510012524 71 0 0.0 0.0 0.00 0.32 0.19 87 1012.4
20260510012024 71 0 0.0 0.0 0.00 0.32 0.19 87 1012.4
20260510011546 71 0 0.0 2.6 0.00 0.32 0.19 87 1012.1
20260510011027 71 0 0.0 2.6 0.00 0.32 0.19 86 1012.1
20260510010526 72 169 0.9 2.6 0.00 0.32 0.19 85 1012.1
20260510010038 72 167 0.9 3.5 0.00 0.32 0.19 85 1012.1
20260510005528 72 167 0.9 3.5 0.00 0.32 0.19 84 1012.0
20260510005026 73 167 1.7 4.3 0.00 0.32 0.19 83 1011.9
20260510004534 73 172 2.6 4.3 0.00 0.32 0.19 81 1011.7
20260510004026 74 160 1.7 3.5 0.00 0.32 0.19 80 1011.6
20260510003526 74 170 0.9 2.6 0.00 0.32 0.19 78 1011.5
20260510003059 75 136 0.9 4.3 0.00 0.32 0.19 77 1011.6
20260510002527 75 163 1.7 4.3 0.00 0.32 0.19 77 1011.5
20260510002026 76 173 2.6 4.3 0.00 0.32 0.19 75 1011.5
20260510001539 76 160 1.7 4.3 0.00 0.32 0.19 75 1011.4
20260510001024 76 146 1.7 4.3 0.00 0.32 0.19 74 1011.3
20260510000524 77 122 0.9 5.2 0.00 0.32 0.19 72 1011.2
20260510000045 77 137 1.7 5.2 0.00 0.32 0.19 72 1011.1
20260509235523 78 149 1.7 5.2 0.00 0.32 0.19 71 1011.0
20260509235025 78 108 1.7 5.2 0.00 0.32 0.19 71 1011.1
20260509234556 78 136 2.6 5.2 0.00 0.32 0.19 70 1010.8
20260509234023 78 150 1.7 5.2 0.00 0.32 0.19 70 1010.8
20260509233522 78 139 2.6 5.2 0.00 0.32 0.19 70 1010.8
20260509233035 78 0 0.0 4.3 0.00 0.32 0.19 70 1010.8
20260509232523 78 89 1.7 4.3 0.00 0.32 0.19 69 1010.9
20260509232024 78 94 0.9 3.5 0.00 0.32 0.19 69 1010.8
20260509231548 78 146 1.7 5.2 0.00 0.32 0.19 70 1010.8
20260509231024 78 148 1.7 5.2 0.00 0.32 0.19 69 1010.8
20260509230523 78 160 2.6 5.2 0.00 0.32 0.19 69 1010.7
20260509230036 78 145 0.9 3.5 0.00 0.32 0.19 72 1010.8
20260509225527 78 191 0.9 8.7 0.00 0.32 0.19 69 1010.9
20260509225024 78 124 2.6 8.7 0.00 0.32 0.19 70 1010.8
20260509224536 79 103 2.6 8.7 0.00 0.32 0.19 69 1010.9
20260509224023 79 193 2.6 5.2 0.00 0.32 0.19 68 1010.9
20260509223521 78 0 0.9 5.2 0.00 0.32 0.19 70 1010.9
20260509223036 78 161 0.9 5.2 0.00 0.32 0.19 71 1010.9
20260509222521 78 165 0.9 4.3 0.00 0.32 0.19 70 1010.7
20260509222024 78 98 0.9 4.3 0.00 0.32 0.19 71 1010.7
20260509221541 78 91 1.7 4.3 0.00 0.32 0.19 69 1010.7
20260509221023 78 0 0.9 3.5 0.00 0.32 0.19 68 1010.7
20260509220523 78 132 0.9 3.5 0.00 0.32 0.19 66 1010.7
20260509220038 79 0 0.9 3.5 0.00 0.32 0.19 68 1010.6
20260509215525 79 0 0.0 4.3 0.00 0.32 0.19 68 1010.8
20260509215023 78 143 0.9 4.3 0.00 0.32 0.19 69 1010.8
20260509214538 78 99 0.9 4.3 0.00 0.32 0.19 70 1010.7
20260509214022 79 162 1.7 3.5 0.00 0.32 0.19 70 1010.9
20260509213524 78 0 0.9 4.3 0.00 0.32 0.19 68 1010.8
20260509213041 78 70 1.7 4.3 0.00 0.32 0.19 69 1010.8
20260509212525 78 101 0.9 4.3 0.00 0.32 0.19 70 1010.8
20260509212024 77 79 0.9 3.5 0.00 0.32 0.19 71 1010.8
20260509211539 78 58 1.7 3.5 0.00 0.32 0.19 71 1010.8
20260509211021 77 66 0.0 2.6 0.00 0.32 0.19 71 1010.9
20260509210521 77 0 0.0 3.5 0.00 0.32 0.19 72 1011.0
20260509210036 77 164 0.9 3.5 0.00 0.32 0.19 74 1011.0
20260509205525 77 0 1.7 3.5 0.00 0.32 0.19 73 1011.0
20260509205026 77 91 1.7 3.5 0.00 0.32 0.19 73 1010.9
20260509204541 77 146 0.9 3.5 0.00 0.32 0.19 73 1011.1
20260509204027 77 89 0.9 3.5 0.00 0.32 0.19 73 1011.2
20260509203526 77 131 0.9 3.5 0.00 0.32 0.19 73 1011.1
20260509203039 77 145 0.9 3.5 0.00 0.32 0.19 73 1011.2
20260509202525 77 0 0.0 3.5 0.00 0.32 0.19 73 1011.3
20260509202024 77 129 1.7 3.5 0.00 0.32 0.19 73 1011.4
20260509201538 77 75 0.0 3.5 0.00 0.32 0.19 73 1011.4
20260509201024 77 100 0.0 3.5 0.00 0.32 0.19 73 1011.2
20260509200527 77 115 0.0 3.5 0.00 0.32 0.19 74 1011.4
20260509200037 76 93 0.9 4.3 0.00 0.32 0.19 72 1011.5
20260509195525 76 89 1.7 4.3 0.00 0.32 0.19 72 1011.3
20260509195026 77 75 0.0 2.6 0.00 0.32 0.19 73 1011.3
20260509194538 76 129 0.0 4.3 0.00 0.32 0.19 71 1011.4
20260509194024 76 83 0.9 4.3 0.00 0.32 0.19 71 1011.5
20260509193524 77 92 0.0 4.3 0.00 0.32 0.19 72 1011.3
20260509193042 77 82 1.7 6.1 0.00 0.32 0.19 71 1011.4
20260509192525 77 0 1.7 6.1 0.00 0.32 0.19 70 1011.3
20260509192025 77 153 1.7 4.3 0.00 0.32 0.19 73 1011.3
20260509191539 77 59 2.6 4.3 0.00 0.32 0.19 72 1011.2
20260509191028 77 72 0.9 5.2 0.00 0.32 0.19 71 1011.3
20260509190524 76 354 2.6 5.2 0.00 0.32 0.19 71 1011.3
20260509190041 77 86 1.7 6.1 0.00 0.32 0.19 70 1011.4
20260509185525 77 108 2.6 6.1 0.00 0.32 0.19 70 1011.4
20260509185025 77 0 0.0 4.3 0.00 0.32 0.19 71 1011.4
20260509184538 77 37 0.9 7.0 0.00 0.32 0.19 71 1011.3
20260509184024 77 153 1.7 7.0 0.00 0.32 0.19 73 1011.5
20260509183525 77 167 2.6 6.1 0.00 0.32 0.19 72 1011.5
20260509183050 77 0 0.9 6.1 0.00 0.32 0.19 70 1011.7
20260509182524 77 307 2.6 6.1 0.00 0.32 0.19 71 1011.7
20260509182024 76 175 1.7 5.2 0.00 0.32 0.19 74 1011.8
20260509181545 76 80 1.7 7.0 0.00 0.32 0.19 73 1011.8
20260509181024 76 113 4.3 7.0 0.00 0.32 0.19 75 1011.9
20260509180525 76 162 4.3 7.0 0.00 0.32 0.19 73 1011.9
20260509180037 75 0 0.9 7.0 0.00 0.32 0.19 74 1011.9
20260509175524 75 151 1.7 7.0 0.00 0.32 0.19 74 1012.1
20260509175025 75 72 1.7 7.0 0.00 0.32 0.19 75 1012.0
20260509174539 75 134 1.7 5.2 0.00 0.32 0.19 77 1012.1
20260509174025 75 131 1.7 5.2 0.00 0.32 0.19 75 1012.2
20260509173524 74 0 0.0 5.2 0.00 0.32 0.19 77 1012.4
20260509173035 75 93 3.5 5.2 0.00 0.32 0.19 76 1012.8
20260509172525 75 53 1.7 6.1 0.00 0.32 0.19 74 1012.6
20260509172025 75 144 1.7 6.1 0.00 0.32 0.19 75 1012.6
20260509171540 75 142 1.7 6.1 0.00 0.32 0.19 77 1012.5
20260509171024 74 136 0.9 4.3 0.00 0.32 0.19 78 1012.5
20260509170524 74 133 0.9 4.3 0.00 0.32 0.19 78 1012.7
20260509170038 74 115 0.9 5.2 0.00 0.32 0.19 77 1012.7
20260509165523 74 170 2.6 5.2 0.00 0.32 0.19 76 1012.8
20260509165023 74 44 0.9 4.3 0.00 0.32 0.19 78 1012.8
20260509164537 73 89 1.7 4.3 0.00 0.32 0.19 78 1012.9
20260509164023 73 169 1.7 7.0 0.00 0.32 0.19 79 1012.8
20260509163523 73 124 1.7 7.0 0.00 0.32 0.19 78 1012.8
20260509163039 73 129 1.7 6.1 0.00 0.32 0.19 79 1012.7
20260509162526 73 63 1.7 6.1 0.00 0.32 0.19 80 1012.7
20260509162027 73 34 1.7 5.2 0.00 0.32 0.19 78 1012.7
20260509161539 73 44 2.6 5.2 0.00 0.32 0.19 78 1012.5
20260509161024 73 122 1.7 5.2 0.00 0.32 0.19 78 1012.6
20260509160527 73 96 1.7 5.2 0.00 0.32 0.19 77 1012.5
20260509160037 73 0 0.9 4.3 0.00 0.32 0.19 81 1012.5
20260509155524 72 106 1.7 4.3 0.00 0.32 0.19 81 1012.6
20260509155023 72 67 1.7 4.3 0.00 0.32 0.19 81 1012.6
20260509154538 72 0 1.7 4.3 0.00 0.32 0.19 83 1012.5
20260509154024 72 34 0.9 3.5 0.00 0.32 0.19 84 1012.5
20260509153527 71 78 0.0 3.5 0.00 0.32 0.19 85 1012.6
20260509153037 71 31 0.9 3.5 0.00 0.32 0.19 87 1012.5
20260509152524 70 55 0.9 5.2 0.00 0.32 0.19 85 1012.5
20260509152024 70 51 0.0 5.2 0.00 0.32 0.19 86 1012.5
20260509151539 70 23 2.6 5.2 0.00 0.32 0.19 85 1012.4
20260509151023 70 27 1.7 5.2 0.00 0.32 0.19 85 1012.1
20260509150525 70 77 1.7 4.3 0.00 0.32 0.19 87 1012.0
20260509150037 70 51 1.7 4.3 0.00 0.32 0.19 87 1012.1
20260509145523 70 65 0.9 3.5 0.00 0.32 0.19 88 1012.2
20260509145027 70 360 0.9 3.5 0.00 0.32 0.19 88 1012.1
20260509144541 70 360 0.9 3.5 0.00 0.32 0.19 89 1012.1
20260509144027 69 341 0.0 3.5 0.00 0.32 0.19 89 1012.1
20260509143526 69 0 0.9 5.2 0.00 0.32 0.19 90 1012.2
20260509143039 69 75 0.9 5.2 0.00 0.32 0.19 90 1012.0